Year,Month,Day,Hour,Minute,Value (Times are PST for temperature in C)
2014,04,29,00,00,7.80
2014,04,29,00,01,7.80
2014,04,29,00,02,7.80
2014,04,29,00,03,7.80
2014,04,29,00,04,7.80
2014,04,29,00,05,7.80
2014,04,29,00,06,7.80
2014,04,29,00,07,7.80
2014,04,29,00,08,7.80
2014,04,29,00,09,7.80
2014,04,29,00,10,7.80
2014,04,29,00,11,7.80
2014,04,29,00,12,7.80
2014,04,29,00,13,7.80
2014,04,29,00,14,7.80
2014,04,29,00,15,7.80
2014,04,29,00,16,7.80
2014,04,29,00,17,7.80
2014,04,29,00,18,7.80
2014,04,29,00,19,7.80
2014,04,29,00,20,7.80
2014,04,29,00,21,7.80
2014,04,29,00,22,7.80
2014,04,29,00,23,7.80
2014,04,29,00,24,7.80
2014,04,29,00,25,7.80
2014,04,29,00,26,7.80
2014,04,29,00,27,7.80
2014,04,29,00,28,7.80
2014,04,29,00,29,7.80
2014,04,29,00,30,7.80
2014,04,29,00,31,7.80
2014,04,29,00,32,7.80
2014,04,29,00,33,7.80
2014,04,29,00,34,7.80
2014,04,29,00,35,7.80
2014,04,29,00,36,7.80
2014,04,29,00,37,7.80
2014,04,29,00,38,7.80
2014,04,29,00,39,7.80
2014,04,29,00,40,7.80
2014,04,29,00,41,7.80
2014,04,29,00,42,7.70
2014,04,29,00,43,7.70
2014,04,29,00,44,7.70
2014,04,29,00,45,7.70
2014,04,29,00,46,7.70
2014,04,29,00,47,7.70
2014,04,29,00,48,7.70
2014,04,29,00,49,7.70
2014,04,29,00,50,7.70
2014,04,29,00,51,7.70
2014,04,29,00,52,7.70
2014,04,29,00,53,7.70
2014,04,29,00,54,7.70
2014,04,29,00,55,7.60
2014,04,29,00,56,7.60
2014,04,29,00,57,7.60
2014,04,29,00,58,7.60
2014,04,29,00,59,7.60
2014,04,29,01,00,7.50
2014,04,29,01,01,7.50
2014,04,29,01,02,7.50
2014,04,29,01,03,7.40
2014,04,29,01,04,7.40
2014,04,29,01,05,7.40
2014,04,29,01,06,7.40
2014,04,29,01,07,7.40
2014,04,29,01,08,7.40
2014,04,29,01,09,7.30
2014,04,29,01,10,7.30
2014,04,29,01,11,7.30
2014,04,29,01,12,7.30
2014,04,29,01,13,7.20
2014,04,29,01,14,7.20
2014,04,29,01,15,7.20
2014,04,29,01,16,7.20
2014,04,29,01,17,7.20
2014,04,29,01,18,7.20
2014,04,29,01,19,7.20
2014,04,29,01,20,7.20
2014,04,29,01,21,7.20
2014,04,29,01,22,7.20
2014,04,29,01,23,7.20
2014,04,29,01,24,7.10
2014,04,29,01,25,7.10
2014,04,29,01,26,7.10
2014,04,29,01,27,7.10
2014,04,29,01,28,7.10
2014,04,29,01,29,7.00
2014,04,29,01,30,7.00
2014,04,29,01,31,7.00
2014,04,29,01,32,7.00
2014,04,29,01,33,6.90
2014,04,29,01,34,6.90
2014,04,29,01,35,6.90
2014,04,29,01,36,6.90
2014,04,29,01,37,6.90
2014,04,29,01,38,6.80
2014,04,29,01,39,6.80
2014,04,29,01,40,6.80
2014,04,29,01,41,6.80
2014,04,29,01,42,6.80
2014,04,29,01,43,6.70
2014,04,29,01,44,6.70
2014,04,29,01,45,6.70
2014,04,29,01,46,6.70
2014,04,29,01,47,6.70
2014,04,29,01,48,6.70
2014,04,29,01,49,6.70
2014,04,29,01,50,6.70
2014,04,29,01,51,6.70
2014,04,29,01,52,6.70
2014,04,29,01,53,6.70
2014,04,29,01,54,6.60
2014,04,29,01,55,6.60
2014,04,29,01,56,6.60
2014,04,29,01,57,6.60
2014,04,29,01,58,6.60
2014,04,29,01,59,6.60
2014,04,29,02,00,6.60
2014,04,29,02,01,6.60
2014,04,29,02,02,6.60
2014,04,29,02,03,6.60
2014,04,29,02,04,6.60
2014,04,29,02,05,6.60
2014,04,29,02,06,6.60
2014,04,29,02,07,6.60
2014,04,29,02,08,6.60
2014,04,29,02,09,6.60
2014,04,29,02,10,6.60
2014,04,29,02,11,6.60
2014,04,29,02,12,6.60
2014,04,29,02,13,6.60
2014,04,29,02,14,6.60
2014,04,29,02,15,6.60
2014,04,29,02,16,6.60
2014,04,29,02,17,6.60
2014,04,29,02,18,6.60
2014,04,29,02,19,6.60
2014,04,29,02,20,6.60
2014,04,29,02,21,6.60
2014,04,29,02,22,6.60
2014,04,29,02,23,6.60
2014,04,29,02,24,6.60
2014,04,29,02,25,6.60
2014,04,29,02,26,6.60
2014,04,29,02,27,6.60
2014,04,29,02,28,6.60
2014,04,29,02,29,6.60
2014,04,29,02,30,6.60
2014,04,29,02,31,6.60
2014,04,29,02,32,6.60
2014,04,29,02,33,6.60
2014,04,29,02,34,6.60
2014,04,29,02,35,6.60
2014,04,29,02,36,6.60
2014,04,29,02,37,6.60
2014,04,29,02,38,6.50
2014,04,29,02,39,6.50
2014,04,29,02,40,6.50
2014,04,29,02,41,6.50
2014,04,29,02,42,6.50
2014,04,29,02,43,6.50
2014,04,29,02,44,6.50
2014,04,29,02,45,6.50
2014,04,29,02,46,6.50
2014,04,29,02,47,6.50
2014,04,29,02,48,6.60
2014,04,29,02,49,6.60
2014,04,29,02,50,6.60
2014,04,29,02,51,6.60
2014,04,29,02,52,6.60
2014,04,29,02,53,6.60
2014,04,29,02,54,6.60
2014,04,29,02,55,6.60
2014,04,29,02,56,6.60
2014,04,29,02,57,6.60
2014,04,29,02,58,6.60
2014,04,29,02,59,6.60
2014,04,29,03,00,6.50
2014,04,29,03,01,6.50
2014,04,29,03,02,6.50
2014,04,29,03,03,6.50
2014,04,29,03,04,6.50
2014,04,29,03,05,6.50
2014,04,29,03,06,6.50
2014,04,29,03,07,6.50
2014,04,29,03,08,6.50
2014,04,29,03,09,6.50
2014,04,29,03,10,6.50
2014,04,29,03,11,6.50
2014,04,29,03,12,6.50
2014,04,29,03,13,6.50
2014,04,29,03,14,6.50
2014,04,29,03,15,6.50
2014,04,29,03,16,6.50
2014,04,29,03,17,6.50
2014,04,29,03,18,6.50
2014,04,29,03,19,6.50
2014,04,29,03,20,6.50
2014,04,29,03,21,6.50
2014,04,29,03,22,6.50
2014,04,29,03,23,6.50
2014,04,29,03,24,6.50
2014,04,29,03,25,6.50
2014,04,29,03,26,6.50
2014,04,29,03,27,6.50
2014,04,29,03,28,6.50
2014,04,29,03,29,6.60
2014,04,29,03,30,6.60
2014,04,29,03,31,6.60
2014,04,29,03,32,6.60
2014,04,29,03,33,6.60
2014,04,29,03,34,6.60
2014,04,29,03,35,6.60
2014,04,29,03,36,6.60
2014,04,29,03,37,6.60
2014,04,29,03,38,6.60
2014,04,29,03,39,6.60
2014,04,29,03,40,6.60
2014,04,29,03,41,6.60
2014,04,29,03,42,6.60
2014,04,29,03,43,6.60
2014,04,29,03,44,6.60
2014,04,29,03,45,6.60
2014,04,29,03,46,6.60
2014,04,29,03,47,6.60
2014,04,29,03,48,6.60
2014,04,29,03,49,6.60
2014,04,29,03,50,6.60
2014,04,29,03,51,6.60
2014,04,29,03,52,6.60
2014,04,29,03,53,6.60
2014,04,29,03,54,6.60
2014,04,29,03,55,6.60
2014,04,29,03,56,6.60
2014,04,29,03,57,6.60
2014,04,29,03,58,6.60
2014,04,29,03,59,6.70
2014,04,29,04,00,6.70
2014,04,29,04,01,6.70
2014,04,29,04,02,6.70
2014,04,29,04,03,6.70
2014,04,29,04,04,6.70
2014,04,29,04,05,6.70
2014,04,29,04,06,6.70
2014,04,29,04,07,6.70
2014,04,29,04,08,6.70
2014,04,29,04,09,6.70
2014,04,29,04,10,6.60
2014,04,29,04,11,6.60
2014,04,29,04,12,6.60
2014,04,29,04,13,6.60
2014,04,29,04,14,6.60
2014,04,29,04,15,6.60
2014,04,29,04,16,6.60
2014,04,29,04,17,6.60
2014,04,29,04,18,6.60
2014,04,29,04,19,6.60
2014,04,29,04,20,6.60
2014,04,29,04,21,6.60
2014,04,29,04,22,6.60
2014,04,29,04,23,6.60
2014,04,29,04,24,6.60
2014,04,29,04,25,6.60
2014,04,29,04,26,6.60
2014,04,29,04,27,6.60
2014,04,29,04,28,6.60
2014,04,29,04,29,6.60
2014,04,29,04,30,6.60
2014,04,29,04,31,6.60
2014,04,29,04,32,6.60
2014,04,29,04,33,6.60
2014,04,29,04,34,6.60
2014,04,29,04,35,6.60
2014,04,29,04,36,6.60
2014,04,29,04,37,6.60
2014,04,29,04,38,6.60
2014,04,29,04,39,6.60
2014,04,29,04,40,6.60
2014,04,29,04,41,6.60
2014,04,29,04,42,6.60
2014,04,29,04,43,6.60
2014,04,29,04,44,6.60
2014,04,29,04,45,6.60
2014,04,29,04,46,6.60
2014,04,29,04,47,6.60
2014,04,29,04,48,6.60
2014,04,29,04,49,6.60
2014,04,29,04,50,6.60
2014,04,29,04,51,6.60
2014,04,29,04,52,6.60
2014,04,29,04,53,6.60
2014,04,29,04,54,6.60
2014,04,29,04,55,6.60
2014,04,29,04,56,6.60
2014,04,29,04,57,6.60
2014,04,29,04,58,6.60
2014,04,29,04,59,6.60
2014,04,29,05,00,6.60
2014,04,29,05,01,6.50
2014,04,29,05,02,6.50
2014,04,29,05,03,6.50
2014,04,29,05,04,6.50
2014,04,29,05,05,6.50
2014,04,29,05,06,6.50
2014,04,29,05,07,6.50
2014,04,29,05,08,6.40
2014,04,29,05,09,6.40
2014,04,29,05,10,6.40
2014,04,29,05,11,6.40
2014,04,29,05,12,6.40
2014,04,29,05,13,6.40
2014,04,29,05,14,6.40
2014,04,29,05,15,6.40
2014,04,29,05,16,6.40
2014,04,29,05,17,6.40
2014,04,29,05,18,6.40
2014,04,29,05,19,6.40
2014,04,29,05,20,6.40
2014,04,29,05,21,6.40
2014,04,29,05,22,6.40
2014,04,29,05,23,6.40
2014,04,29,05,24,6.40
2014,04,29,05,25,6.40
2014,04,29,05,26,6.40
2014,04,29,05,27,6.50
2014,04,29,05,28,6.50
2014,04,29,05,29,6.50
2014,04,29,05,30,6.50
2014,04,29,05,31,6.50
2014,04,29,05,32,6.50
2014,04,29,05,33,6.50
2014,04,29,05,34,6.50
2014,04,29,05,35,6.60
2014,04,29,05,36,6.60
2014,04,29,05,37,6.60
2014,04,29,05,38,6.60
2014,04,29,05,39,6.60
2014,04,29,05,40,6.60
2014,04,29,05,41,6.60
2014,04,29,05,42,6.60
2014,04,29,05,43,6.60
2014,04,29,05,44,6.60
2014,04,29,05,45,6.60
2014,04,29,05,46,6.60
2014,04,29,05,47,6.60
2014,04,29,05,48,6.60
2014,04,29,05,49,6.60
2014,04,29,05,50,6.60
2014,04,29,05,51,6.60
2014,04,29,05,52,6.60
2014,04,29,05,53,6.70
2014,04,29,05,54,6.70
2014,04,29,05,55,6.70
2014,04,29,05,56,6.70
2014,04,29,05,57,6.70
2014,04,29,05,58,6.70
2014,04,29,05,59,6.70
2014,04,29,06,00,6.70
2014,04,29,06,01,6.70
2014,04,29,06,02,6.70
2014,04,29,06,03,6.70
2014,04,29,06,04,6.70
2014,04,29,06,05,6.70
2014,04,29,06,06,6.70
2014,04,29,06,07,6.70
2014,04,29,06,08,6.70
2014,04,29,06,09,6.70
2014,04,29,06,10,6.70
2014,04,29,06,11,6.70
2014,04,29,06,12,6.70
2014,04,29,06,13,6.70
2014,04,29,06,14,6.70
2014,04,29,06,15,6.70
2014,04,29,06,16,6.70
2014,04,29,06,17,6.70
2014,04,29,06,18,6.70
2014,04,29,06,19,6.70
2014,04,29,06,20,6.70
2014,04,29,06,21,6.70
2014,04,29,06,22,6.70
2014,04,29,06,23,6.70
2014,04,29,06,24,6.70
2014,04,29,06,25,6.70
2014,04,29,06,26,6.70
2014,04,29,06,27,6.70
2014,04,29,06,28,6.70
2014,04,29,06,29,6.70
2014,04,29,06,30,6.70
2014,04,29,06,31,6.70
2014,04,29,06,32,6.70
2014,04,29,06,33,6.70
2014,04,29,06,34,6.70
2014,04,29,06,35,6.70
2014,04,29,06,36,6.70
2014,04,29,06,37,6.70
2014,04,29,06,38,6.80
2014,04,29,06,39,6.80
2014,04,29,06,40,6.80
2014,04,29,06,41,6.80
2014,04,29,06,42,6.80
2014,04,29,06,43,6.80
2014,04,29,06,44,6.80
2014,04,29,06,45,6.80
2014,04,29,06,46,6.80
2014,04,29,06,47,6.80
2014,04,29,06,48,6.80
2014,04,29,06,49,6.80
2014,04,29,06,50,6.80
2014,04,29,06,51,6.80
2014,04,29,06,52,6.90
2014,04,29,06,53,6.90
2014,04,29,06,54,6.90
2014,04,29,06,55,6.90
2014,04,29,06,56,6.90
2014,04,29,06,57,6.90
2014,04,29,06,58,7.00
2014,04,29,06,59,7.00
2014,04,29,07,00,7.00
2014,04,29,07,01,7.00
2014,04,29,07,02,7.10
2014,04,29,07,03,7.10
2014,04,29,07,04,7.10
2014,04,29,07,05,7.10
2014,04,29,07,06,7.10
2014,04,29,07,07,7.10
2014,04,29,07,08,7.10
2014,04,29,07,09,7.10
2014,04,29,07,10,7.10
2014,04,29,07,11,7.20
2014,04,29,07,12,7.20
2014,04,29,07,13,7.20
2014,04,29,07,14,7.20
2014,04,29,07,15,7.20
2014,04,29,07,16,7.20
2014,04,29,07,17,7.20
2014,04,29,07,18,7.20
2014,04,29,07,19,7.30
2014,04,29,07,20,7.30
2014,04,29,07,21,7.30
2014,04,29,07,22,7.30
2014,04,29,07,23,7.40
2014,04,29,07,24,7.40
2014,04,29,07,25,7.40
2014,04,29,07,26,7.40
2014,04,29,07,27,7.40
2014,04,29,07,28,7.50
2014,04,29,07,29,7.50
2014,04,29,07,30,7.50
2014,04,29,07,31,7.50
2014,04,29,07,32,7.60
2014,04,29,07,33,7.60
2014,04,29,07,34,7.60
2014,04,29,07,35,7.60
2014,04,29,07,36,7.60
2014,04,29,07,37,7.60
2014,04,29,07,38,7.60
2014,04,29,07,39,7.60
2014,04,29,07,40,7.60
2014,04,29,07,41,7.70
2014,04,29,07,42,7.70
2014,04,29,07,43,7.70
2014,04,29,07,44,7.70
2014,04,29,07,45,7.70
2014,04,29,07,46,7.70
2014,04,29,07,47,7.70
2014,04,29,07,48,7.70
2014,04,29,07,49,7.70
2014,04,29,07,50,7.70
2014,04,29,07,51,7.80
2014,04,29,07,52,7.80
2014,04,29,07,53,7.80
2014,04,29,07,54,7.80
2014,04,29,07,55,7.80
2014,04,29,07,56,7.80
2014,04,29,07,57,7.80
2014,04,29,07,58,7.80
2014,04,29,07,59,7.80
2014,04,29,08,00,7.80
2014,04,29,08,01,7.90
2014,04,29,08,02,7.90
2014,04,29,08,03,7.90
2014,04,29,08,04,7.90
2014,04,29,08,05,7.90
2014,04,29,08,06,7.90
2014,04,29,08,07,8.00
2014,04,29,08,08,8.00
2014,04,29,08,09,8.00
2014,04,29,08,10,8.00
2014,04,29,08,11,8.10
2014,04,29,08,12,8.10
2014,04,29,08,13,8.10
2014,04,29,08,14,8.20
2014,04,29,08,15,8.20
2014,04,29,08,16,8.20
2014,04,29,08,17,8.20
2014,04,29,08,18,8.20
2014,04,29,08,19,8.20
2014,04,29,08,20,8.20
2014,04,29,08,21,8.20
2014,04,29,08,22,8.30
2014,04,29,08,23,8.30
2014,04,29,08,24,8.30
2014,04,29,08,25,8.30
2014,04,29,08,26,8.30
2014,04,29,08,27,8.30
2014,04,29,08,28,8.30
2014,04,29,08,29,8.40
2014,04,29,08,30,8.40
2014,04,29,08,31,8.40
2014,04,29,08,32,8.50
2014,04,29,08,33,8.50
2014,04,29,08,34,8.50
2014,04,29,08,35,8.60
2014,04,29,08,36,8.60
2014,04,29,08,37,8.60
2014,04,29,08,38,8.70
2014,04,29,08,39,8.70
2014,04,29,08,40,8.80
2014,04,29,08,41,8.80
2014,04,29,08,42,8.80
2014,04,29,08,43,8.90
2014,04,29,08,44,8.90
2014,04,29,08,45,9.00
2014,04,29,08,46,9.00
2014,04,29,08,47,9.00
2014,04,29,08,48,9.10
2014,04,29,08,49,9.20
2014,04,29,08,50,9.20
2014,04,29,08,51,9.30
2014,04,29,08,52,9.30
2014,04,29,08,53,9.40
2014,04,29,08,54,9.40
2014,04,29,08,55,9.50
2014,04,29,08,56,9.60
2014,04,29,08,57,9.60
2014,04,29,08,58,9.70
2014,04,29,08,59,9.70
2014,04,29,09,00,9.80
2014,04,29,09,01,9.80
2014,04,29,09,02,9.80
2014,04,29,09,03,9.80
2014,04,29,09,04,9.80
2014,04,29,09,05,9.90
2014,04,29,09,06,9.90
2014,04,29,09,07,9.90
2014,04,29,09,08,10.00
2014,04,29,09,09,10.00
2014,04,29,09,10,10.10
2014,04,29,09,11,10.10
2014,04,29,09,12,10.20
2014,04,29,09,13,10.20
2014,04,29,09,14,10.30
2014,04,29,09,15,10.30
2014,04,29,09,16,10.40
2014,04,29,09,17,10.40
2014,04,29,09,18,10.40
2014,04,29,09,19,10.50
2014,04,29,09,20,10.60
2014,04,29,09,21,10.60
2014,04,29,09,22,10.70
2014,04,29,09,23,10.70
2014,04,29,09,24,10.80
2014,04,29,09,25,10.80
2014,04,29,09,26,10.90
2014,04,29,09,27,11.00
2014,04,29,09,28,11.00
2014,04,29,09,29,11.10
2014,04,29,09,30,11.10
2014,04,29,09,31,11.20
2014,04,29,09,32,11.20
2014,04,29,09,33,11.20
2014,04,29,09,34,11.20
2014,04,29,09,35,11.30
2014,04,29,09,36,11.30
2014,04,29,09,37,11.30
2014,04,29,09,38,11.30
2014,04,29,09,39,11.30
2014,04,29,09,40,11.40
2014,04,29,09,41,11.40
2014,04,29,09,42,11.40
2014,04,29,09,43,11.40
2014,04,29,09,44,11.40
2014,04,29,09,45,11.50
2014,04,29,09,46,11.50
2014,04,29,09,47,11.50
2014,04,29,09,48,11.50
2014,04,29,09,49,11.60
2014,04,29,09,50,11.60
2014,04,29,09,51,11.60
2014,04,29,09,52,11.60
2014,04,29,09,53,11.70
2014,04,29,09,54,11.70
2014,04,29,09,55,11.70
2014,04,29,09,56,11.80
2014,04,29,09,57,11.80
2014,04,29,09,58,11.90
2014,04,29,09,59,11.90
2014,04,29,10,00,12.00
2014,04,29,10,01,12.00
2014,04,29,10,02,12.10
2014,04,29,10,03,12.10
2014,04,29,10,04,12.20
2014,04,29,10,05,12.20
2014,04,29,10,06,12.30
2014,04,29,10,07,12.30
2014,04,29,10,08,12.40
2014,04,29,10,09,12.40
2014,04,29,10,10,12.50
2014,04,29,10,11,12.50
2014,04,29,10,12,12.60
2014,04,29,10,13,12.60
2014,04,29,10,14,12.60
2014,04,29,10,15,12.60
2014,04,29,10,16,12.60
2014,04,29,10,17,12.60
2014,04,29,10,18,12.70
2014,04,29,10,19,12.70
2014,04,29,10,20,12.70
2014,04,29,10,21,12.80
2014,04,29,10,22,12.80
2014,04,29,10,23,12.90
2014,04,29,10,24,12.90
2014,04,29,10,25,13.00
2014,04,29,10,26,13.00
2014,04,29,10,27,13.10
2014,04,29,10,28,13.10
2014,04,29,10,29,13.20
2014,04,29,10,30,13.30
2014,04,29,10,31,13.30
2014,04,29,10,32,13.40
2014,04,29,10,33,13.40
2014,04,29,10,34,13.50
2014,04,29,10,35,13.60
2014,04,29,10,36,13.60
2014,04,29,10,37,13.70
2014,04,29,10,38,13.70
2014,04,29,10,39,13.70
2014,04,29,10,40,13.70
2014,04,29,10,41,13.70
2014,04,29,10,42,13.70
2014,04,29,10,43,13.70
2014,04,29,10,44,13.60
2014,04,29,10,45,13.60
2014,04,29,10,46,13.60
2014,04,29,10,47,13.60
2014,04,29,10,48,13.60
2014,04,29,10,49,13.60
2014,04,29,10,50,13.60
2014,04,29,10,51,13.60
2014,04,29,10,52,13.60
2014,04,29,10,53,13.60
2014,04,29,10,54,13.70
2014,04,29,10,55,13.70
2014,04,29,10,56,13.70
2014,04,29,10,57,13.70
2014,04,29,10,58,13.70
2014,04,29,10,59,13.80
2014,04,29,11,00,13.80
2014,04,29,11,01,13.80
2014,04,29,11,02,13.90
2014,04,29,11,03,13.90
2014,04,29,11,04,13.90
2014,04,29,11,05,13.90
2014,04,29,11,06,13.90
2014,04,29,11,07,14.00
2014,04,29,11,08,14.00
2014,04,29,11,09,14.00
2014,04,29,11,10,14.10
2014,04,29,11,11,14.00
2014,04,29,11,12,14.00
2014,04,29,11,13,13.90
2014,04,29,11,14,13.90
2014,04,29,11,15,13.80
2014,04,29,11,16,13.80
2014,04,29,11,17,13.80
2014,04,29,11,18,13.90
2014,04,29,11,19,13.90
2014,04,29,11,20,14.00
2014,04,29,11,21,14.00
2014,04,29,11,22,14.00
2014,04,29,11,23,14.10
2014,04,29,11,24,14.10
2014,04,29,11,25,14.10
2014,04,29,11,26,14.20
2014,04,29,11,27,14.20
2014,04,29,11,28,14.20
2014,04,29,11,29,14.20
2014,04,29,11,30,14.20
2014,04,29,11,31,14.20
2014,04,29,11,32,14.20
2014,04,29,11,33,14.30
2014,04,29,11,34,14.30
2014,04,29,11,35,14.40
2014,04,29,11,36,14.40
2014,04,29,11,37,14.50
2014,04,29,11,38,14.50
2014,04,29,11,39,14.60
2014,04,29,11,40,14.60
2014,04,29,11,41,14.60
2014,04,29,11,42,14.70
2014,04,29,11,43,14.70
2014,04,29,11,44,14.70
2014,04,29,11,45,14.70
2014,04,29,11,46,14.70
2014,04,29,11,47,14.70
2014,04,29,11,48,14.70
2014,04,29,11,49,14.70
2014,04,29,11,50,14.70
2014,04,29,11,51,14.60
2014,04,29,11,52,14.60
2014,04,29,11,53,14.60
2014,04,29,11,54,14.60
2014,04,29,11,55,14.70
2014,04,29,11,56,14.70
2014,04,29,11,57,14.80
2014,04,29,11,58,14.90
2014,04,29,11,59,15.00
2014,04,29,12,00,15.00
2014,04,29,12,01,15.00
2014,04,29,12,02,15.10
2014,04,29,12,03,15.30
2014,04,29,12,04,15.30
2014,04,29,12,05,15.40
2014,04,29,12,06,15.40
2014,04,29,12,07,15.50
2014,04,29,12,08,15.50
2014,04,29,12,09,15.50
2014,04,29,12,10,15.50
2014,04,29,12,11,15.60
2014,04,29,12,12,15.60
2014,04,29,12,13,15.70
2014,04,29,12,14,15.70
2014,04,29,12,15,15.50
2014,04,29,12,16,15.40
2014,04,29,12,17,15.30
2014,04,29,12,18,15.10
2014,04,29,12,19,15.00
2014,04,29,12,20,15.00
2014,04,29,12,21,15.00
2014,04,29,12,22,15.00
2014,04,29,12,23,15.00
2014,04,29,12,24,15.00
2014,04,29,12,25,15.00
2014,04,29,12,26,15.00
2014,04,29,12,27,15.00
2014,04,29,12,28,15.00
2014,04,29,12,29,15.00
2014,04,29,12,30,15.00
2014,04,29,12,31,15.00
2014,04,29,12,32,15.10
2014,04,29,12,33,15.20
2014,04,29,12,34,15.30
2014,04,29,12,35,15.40
2014,04,29,12,36,15.60
2014,04,29,12,37,15.70
2014,04,29,12,38,15.80
2014,04,29,12,39,15.80
2014,04,29,12,40,15.90
2014,04,29,12,41,16.00
2014,04,29,12,42,16.10
2014,04,29,12,43,16.20
2014,04,29,12,44,16.30
2014,04,29,12,45,16.30
2014,04,29,12,46,16.40
2014,04,29,12,47,16.50
2014,04,29,12,48,16.60
2014,04,29,12,49,16.70
2014,04,29,12,50,16.70
2014,04,29,12,51,16.80
2014,04,29,12,52,16.90
2014,04,29,12,53,16.90
2014,04,29,12,54,16.90
2014,04,29,12,55,16.90
2014,04,29,12,56,16.80
2014,04,29,12,57,16.90
2014,04,29,12,58,16.90
2014,04,29,12,59,16.90
2014,04,29,13,00,16.90
2014,04,29,13,01,16.90
2014,04,29,13,02,17.00
2014,04,29,13,03,17.00
2014,04,29,13,04,17.10
2014,04,29,13,05,17.10
2014,04,29,13,06,17.20
2014,04,29,13,07,17.20
2014,04,29,13,08,17.30
2014,04,29,13,09,17.40
2014,04,29,13,10,17.50
2014,04,29,13,11,17.60
2014,04,29,13,12,17.60
2014,04,29,13,13,17.70
2014,04,29,13,14,17.80
2014,04,29,13,15,17.90
2014,04,29,13,16,17.90
2014,04,29,13,17,18.00
2014,04,29,13,18,18.10
2014,04,29,13,19,18.10
2014,04,29,13,20,18.00
2014,04,29,13,21,18.00
2014,04,29,13,22,18.00
2014,04,29,13,23,18.00
2014,04,29,13,24,18.10
2014,04,29,13,25,18.10
2014,04,29,13,26,18.10
2014,04,29,13,27,18.10
2014,04,29,13,28,18.10
2014,04,29,13,29,18.20
2014,04,29,13,30,18.20
2014,04,29,13,31,18.30
2014,04,29,13,32,18.30
2014,04,29,13,33,18.30
2014,04,29,13,34,18.30
2014,04,29,13,35,18.30
2014,04,29,13,36,18.30
2014,04,29,13,37,18.30
2014,04,29,13,38,18.30
2014,04,29,13,39,18.30
2014,04,29,13,40,18.30
2014,04,29,13,41,18.30
2014,04,29,13,42,18.30
2014,04,29,13,43,18.30
2014,04,29,13,44,18.30
2014,04,29,13,45,18.30
2014,04,29,13,46,18.30
2014,04,29,13,47,18.30
2014,04,29,13,48,18.40
2014,04,29,13,49,18.40
2014,04,29,13,50,18.40
2014,04,29,13,51,18.40
2014,04,29,13,52,18.50
2014,04,29,13,53,18.50
2014,04,29,13,54,18.50
2014,04,29,13,55,18.60
2014,04,29,13,56,18.70
2014,04,29,13,57,18.70
2014,04,29,13,58,18.70
2014,04,29,13,59,18.70
2014,04,29,14,00,18.70
2014,04,29,14,01,18.60
2014,04,29,14,02,18.50
2014,04,29,14,03,18.60
2014,04,29,14,04,18.60
2014,04,29,14,05,18.60
2014,04,29,14,06,18.60
2014,04,29,14,07,18.60
2014,04,29,14,08,18.60
2014,04,29,14,09,18.60
2014,04,29,14,10,18.60
2014,04,29,14,11,18.70
2014,04,29,14,12,18.70
2014,04,29,14,13,18.70
2014,04,29,14,14,18.80
2014,04,29,14,15,18.80
2014,04,29,14,16,18.80
2014,04,29,14,17,18.80
2014,04,29,14,18,18.80
2014,04,29,14,19,18.80
2014,04,29,14,20,18.70
2014,04,29,14,21,18.50
2014,04,29,14,22,18.40
2014,04,29,14,23,18.30
2014,04,29,14,24,18.20
2014,04,29,14,25,18.20
2014,04,29,14,26,18.20
2014,04,29,14,27,18.20
2014,04,29,14,28,18.20
2014,04,29,14,29,18.20
2014,04,29,14,30,18.30
2014,04,29,14,31,18.30
2014,04,29,14,32,18.40
2014,04,29,14,33,18.40
2014,04,29,14,34,18.50
2014,04,29,14,35,18.50
2014,04,29,14,36,18.40
2014,04,29,14,37,18.30
2014,04,29,14,38,18.30
2014,04,29,14,39,18.20
2014,04,29,14,40,18.10
2014,04,29,14,41,18.10
2014,04,29,14,42,17.90
2014,04,29,14,43,17.80
2014,04,29,14,44,17.70
2014,04,29,14,45,17.70
2014,04,29,14,46,17.70
2014,04,29,14,47,17.70
2014,04,29,14,48,17.70
2014,04,29,14,49,17.80
2014,04,29,14,50,17.80
2014,04,29,14,51,17.80
2014,04,29,14,52,17.80
2014,04,29,14,53,17.70
2014,04,29,14,54,17.60
2014,04,29,14,55,17.60
2014,04,29,14,56,17.60
2014,04,29,14,57,17.70
2014,04,29,14,58,17.70
2014,04,29,14,59,17.80
2014,04,29,15,00,17.90
2014,04,29,15,01,17.90
2014,04,29,15,02,18.00
2014,04,29,15,03,18.10
2014,04,29,15,04,18.10
2014,04,29,15,05,18.10
2014,04,29,15,06,18.10
2014,04,29,15,07,18.10
2014,04,29,15,08,18.10
2014,04,29,15,09,18.20
2014,04,29,15,10,18.20
2014,04,29,15,11,18.30
2014,04,29,15,12,18.40
2014,04,29,15,13,18.40
2014,04,29,15,14,18.30
2014,04,29,15,15,18.30
2014,04,29,15,16,18.20
2014,04,29,15,17,18.30
2014,04,29,15,18,18.30
2014,04,29,15,19,18.40
2014,04,29,15,20,18.60
2014,04,29,15,21,18.70
2014,04,29,15,22,18.80
2014,04,29,15,23,18.90
2014,04,29,15,24,19.00
2014,04,29,15,25,19.10
2014,04,29,15,26,19.10
2014,04,29,15,27,19.00
2014,04,29,15,28,18.90
2014,04,29,15,29,18.90
2014,04,29,15,30,18.80
2014,04,29,15,31,18.70
2014,04,29,15,32,18.60
2014,04,29,15,33,18.60
2014,04,29,15,34,18.60
2014,04,29,15,35,18.60
2014,04,29,15,36,18.60
2014,04,29,15,37,18.70
2014,04,29,15,38,18.70
2014,04,29,15,39,18.70
2014,04,29,15,40,18.70
2014,04,29,15,41,18.70
2014,04,29,15,42,18.70
2014,04,29,15,43,18.70
2014,04,29,15,44,18.80
2014,04,29,15,45,18.80
2014,04,29,15,46,18.90
2014,04,29,15,47,19.00
2014,04,29,15,48,19.00
2014,04,29,15,49,19.10
2014,04,29,15,50,19.20
2014,04,29,15,51,19.30
2014,04,29,15,52,19.30
2014,04,29,15,53,19.30
2014,04,29,15,54,19.30
2014,04,29,15,55,19.30
2014,04,29,15,56,19.30
2014,04,29,15,57,19.20
2014,04,29,15,58,19.20
2014,04,29,15,59,19.20
2014,04,29,16,00,19.20
2014,04,29,16,01,19.30
2014,04,29,16,02,19.30
2014,04,29,16,03,19.40
2014,04,29,16,04,19.40
2014,04,29,16,05,19.50
2014,04,29,16,06,19.60
2014,04,29,16,07,19.60
2014,04,29,16,08,19.70
2014,04,29,16,09,19.80
2014,04,29,16,10,19.90
2014,04,29,16,11,20.00
2014,04,29,16,12,20.00
2014,04,29,16,13,20.00
2014,04,29,16,14,20.00
2014,04,29,16,15,20.00
2014,04,29,16,16,20.10
2014,04,29,16,17,20.10
2014,04,29,16,18,20.10
2014,04,29,16,19,20.20
2014,04,29,16,20,20.20
2014,04,29,16,21,20.30
2014,04,29,16,22,20.30
2014,04,29,16,23,20.40
2014,04,29,16,24,20.40
2014,04,29,16,25,20.40
2014,04,29,16,26,20.50
2014,04,29,16,27,20.50
2014,04,29,16,28,20.60
2014,04,29,16,29,20.60
2014,04,29,16,30,20.70
2014,04,29,16,31,20.80
2014,04,29,16,32,20.80
2014,04,29,16,33,20.90
2014,04,29,16,34,21.00
2014,04,29,16,35,21.00
2014,04,29,16,36,21.10
2014,04,29,16,37,21.10
2014,04,29,16,38,21.10
2014,04,29,16,39,21.10
2014,04,29,16,40,21.20
2014,04,29,16,41,21.20
2014,04,29,16,42,21.20
2014,04,29,16,43,21.30
2014,04,29,16,44,21.30
2014,04,29,16,45,21.30
2014,04,29,16,46,21.30
2014,04,29,16,47,21.40
2014,04,29,16,48,21.40
2014,04,29,16,49,21.40
2014,04,29,16,50,21.40
2014,04,29,16,51,21.30
2014,04,29,16,52,21.30
2014,04,29,16,53,21.30
2014,04,29,16,54,21.20
2014,04,29,16,55,21.20
2014,04,29,16,56,21.20
2014,04,29,16,57,21.10
2014,04,29,16,58,20.90
2014,04,29,16,59,20.90
2014,04,29,17,00,20.80
2014,04,29,17,01,20.80
2014,04,29,17,02,20.80
2014,04,29,17,03,20.70
2014,04,29,17,04,20.70
2014,04,29,17,05,20.80
2014,04,29,17,06,20.80
2014,04,29,17,07,20.80
2014,04,29,17,08,20.80
2014,04,29,17,09,20.90
2014,04,29,17,10,20.90
2014,04,29,17,11,20.90
2014,04,29,17,12,20.90
2014,04,29,17,13,21.00
2014,04,29,17,14,21.00
2014,04,29,17,15,21.00
2014,04,29,17,16,21.00
2014,04,29,17,17,21.00
2014,04,29,17,18,20.90
2014,04,29,17,19,20.90
2014,04,29,17,20,20.90
2014,04,29,17,21,20.80
2014,04,29,17,22,20.80
2014,04,29,17,23,20.80
2014,04,29,17,24,20.80
2014,04,29,17,25,20.80
2014,04,29,17,26,20.80
2014,04,29,17,27,20.90
2014,04,29,17,28,20.90
2014,04,29,17,29,21.00
2014,04,29,17,30,21.00
2014,04,29,17,31,21.10
2014,04,29,17,32,21.10
2014,04,29,17,33,21.20
2014,04,29,17,34,21.30
2014,04,29,17,35,21.30
2014,04,29,17,36,21.30
2014,04,29,17,37,21.40
2014,04,29,17,38,21.40
2014,04,29,17,39,21.40
2014,04,29,17,40,21.40
2014,04,29,17,41,21.40
2014,04,29,17,42,21.30
2014,04,29,17,43,21.30